"Pseudo-MPEC" for CE6HHU2

Created 2026 Feb 15 2:35:05 UT using Find_Orb

Click here for an explanation of pseudo-MPECs

 
 Astrometry: 
     CE6HHU2*1C2026 02 10.11329403 29 38.152+38 05 45.78   ~2A3Kx20.44GVNEOCPG96
     CE6HHU2 1C2026 02 10.11866203 29 36.895+38 05 50.75   ~2A3Kx20.65GVNEOCPG96
     CE6HHU2 1C2026 02 10.12402703 29 35.754+38 05 55.39   ~2A3Kx      VNEOCPG96
     CE6HHU2 1C2026 02 10.15249003 29 29.458+38 06 20.48   ~2A45x21.07GVNEOCPI52
     CE6HHU2 1C2026 02 10.15429203 29 29.070+38 06 21.70   ~2A45x      VNEOCPI52
     CE6HHU2  C2026 02 10.17956203 29 23.476+38 06 42.44   ~2A5Kx20.9 GWNEOCPH01
     CE6HHU2  C2026 02 10.18461803 29 22.367+38 06 46.76   ~2A5K 21.0 GWNEOCPH01
     CE6HHU2  C2026 02 10.19685003 29 19.710+38 06 57.04   ~2A5K 20.6 GWNEOCPH01
     CE6HHU2  C2026 02 10.20037503 29 18.948+38 07 00.12   ~2A5K 20.8 GWNEOCPH01
     CE6HHU2 1C2026 02 10.21160703 29 16.595+38 07 10.99   ~2A5o 20.97GVNEOCPI52
     CE6HHU2 1C2026 02 10.21530603 29 15.803+38 07 14.56   ~2A5o 20.78GVNEOCPI52
     CE6HHU2 1C2026 02 10.21899803 29 14.978+38 07 17.72   ~2A5o 21.44GVNEOCPI52
     CE6HHU2 1C2026 02 10.22592503 29 13.434+38 07 23.16   ~2A5ox      VNEOCPI52
     CE6HHU2 1C2026 02 12.11274503 22 37.729+38 36 28.01   ~2C35 20.97GVNEOCPV06
     CE6HHU2 1C2026 02 12.11377503 22 37.524+38 36 29.20   ~2C35 21.25GVNEOCPV06
     CE6HHU2 1C2026 02 12.11480303 22 37.297+38 36 29.99   ~2C35 21.00GVNEOCPV06
     CE6HHU2 1C2026 02 12.11583203 22 37.060+38 36 30.89   ~2C35 20.78GVNEOCPV06
     CE6HHU2 KC2026 02 14.03498303 15 46.67 +39 05 59.8    ~2E1K 21.3 GVNEOCPH21
     CE6HHU2 KC2026 02 14.03659303 15 46.30 +39 06 01.1    ~2E1K 21.0 GVNEOCPH21
     CE6HHU2 KC2026 02 14.04044403 15 45.44 +39 06 04.6    ~2E1K 21.0 GVNEOCPH21

Station data:
(G96) Mt. Lemmon Survey  (N32.442729 W110.788720)  US/Arizona.  Observer E.
   J. Christensen. Measurers T. Beuden, V. F. Carvajal, D. Fay, J. B.
   Fazekas, D. C. Fuls, A. R. Gibbs, A. D. Grauer, H. Gröller, J. K. Hogan,
   R. A. Kowalski, S. M. Larson, G. J. Leonard, D. Rankin, R. L. Seaman, F.
   C. Shelly, K. W. Wierzchoś. 1.5-m reflector + 10K CCD.
(H01) Magdalena Ridge Observatory, Socorro  (N33.984833 W107.189333)  US/New
   Mexico.  Observers W. H. Ryan, E. V. Ryan. Measurer W. H. Ryan. 2.4-m
   f/8.9 reflector + CCD.
(H21) Astronomical Research Observatory, Westfield  (N39.483054 W87.968270)
   US/Illinois.  Observer R. Holmes. Measurers S. Foglia, L. Buzzi, T.
   Linder, R. Holmes. 0.40-m f/5.32 astrograph + CCD.
(I52) Steward Observatory, Mt. Lemmon Station  (N32.442570 W110.788920)
   US/Arizona. Measurers T. Beuden, V. F. Carvajal, D. Fay, J. B. Fazekas, D.
   C. Fuls, A. R. Gibbs, A. D. Grauer, H. Gröller, J. K. Hogan, R. A.
   Kowalski, S. M. Larson, G. J. Leonard, D. Rankin, R. L. Seaman, F. C.
   Shelly, K. W. Wierzchoś. 1.0-m prime focus + CCD.
(V06) Catalina Sky Survey-Kuiper  (N32.416871 W110.732550)  US/Arizona.
   Measurers T. Beuden, V. F. Carvajal, D. Fay, J. B. Fazekas, D. C. Fuls, A.
   R. Gibbs, A. D. Grauer, H. Gröller, J. K. Hogan, R. A. Kowalski, S. M.
   Larson, G. J. Leonard, D. Rankin, R. L. Seaman, F. C. Shelly, K. W.
   Wierzchoś. 1.55-m reflector + CCD.

Orbital elements:  CE6HHU2
   Perihelion 2026 Mar 31.978357 +/- 0.161 TT = 23:28:50.0 (JD 2461131.478357)
Epoch 2026 Feb 14.0 TT = JDT 2461085.5   Earth MOID: 0.5989   Ju: 0.1299
q   0.782566742 +/- 0.0132          Sa: 0.8146                   AutoNEOCP
H   17.52 G 0.15                    Peri.   92.045119 +/- 0.48
z  -3.5867607571 +/- 0.088          Node    85.367103 +/- 0.037
e   3.80687968 +/- 0.115            Incl.   73.290352 +/- 1.5
13 of 20 observations 2026 Feb. 10-14; mean residual 0".38
Residuals in arcseconds: 
260210 G96(10.8+  4.6+)   260210 H01  .22+  .29-    260212 V06  .15+  .16+    
260210 G96( 9.2+  4.7+)   260210 H01  .06-  .42-    260212 V06  .07+  .01+    
260210 G96( 9.1+  4.4+)   260210 I52  .18-  .04-    260212 V06  .12-  .03-    
260210 I52( 5.3+  3.4+)   260210 I52  .38-  .17+    260214 H21  .22+  .12+    
260210 I52( 5.2+  3.0+)   260210 I52  1.0-  .03-    260214 H21  .00   .06-    
260210 H01( 1.9+  .86+)   260210 I52( 2.1-  .89-)   260214 H21  .23-  .08-    
260210 H01  1.3+  .58+    260212 V06  .03-  .08-    

Ephemerides (geocentric):
Date (UTC) HH   RA             Dec           delta  r     elong  mag " sig PA
---- --------  ------------   ------------  ------ ------ -----  --- --------
2026 02 15 03  03 11 50.186   +39 22 42.90  1.5404 1.8343  90.3 21.1 .807  20
2026 02 15 04  03 11 41.091   +39 23 21.21  1.5399 1.8330  90.2 21.1 .836  20
2026 02 15 05  03 11 31.993   +39 23 59.52  1.5394 1.8316  90.2 21.1 .865  20
2026 02 15 06  03 11 22.891   +39 24 37.83  1.5389 1.8303  90.1 21.1 .895  20
2026 02 15 07  03 11 13.785   +39 25 16.13  1.5384 1.8289  90.1 21.1 .925  19
2026 02 15 08  03 11 04.676   +39 25 54.43  1.5379 1.8276  90.0 21.1 .955  19
2026 02 15 09  03 10 55.562   +39 26 32.73  1.5374 1.8262  89.9 21.1 .986  19
2026 02 15 10  03 10 46.445   +39 27 11.03  1.5369 1.8249  89.9 21.1 1.02  19
2026 02 15 11  03 10 37.324   +39 27 49.32  1.5364 1.8235  89.8 21.1 1.05  18
2026 02 15 12  03 10 28.200   +39 28 27.62  1.5359 1.8222  89.7 21.1 1.08  18
2026 02 15 13  03 10 19.071   +39 29 05.91  1.5354 1.8208  89.7 21.1 1.11  18
2026 02 15 14  03 10 09.939   +39 29 44.19  1.5349 1.8195  89.6 21.1 1.15  18
2026 02 15 15  03 10 00.803   +39 30 22.48  1.5344 1.8181  89.5 21.1 1.18  18
2026 02 15 16  03 09 51.663   +39 31 00.76  1.5339 1.8168  89.5 21.1 1.21  17
2026 02 15 17  03 09 42.519   +39 31 39.04  1.5334 1.8154  89.4 21.1 1.25  17
2026 02 15 18  03 09 33.372   +39 32 17.32  1.5329 1.8141  89.3 21.1 1.28  17
2026 02 15 19  03 09 24.221   +39 32 55.59  1.5324 1.8127  89.3 21.1 1.32  17
2026 02 15 20  03 09 15.066   +39 33 33.87  1.5319 1.8114  89.2 21.1 1.35  17
2026 02 15 21  03 09 05.907   +39 34 12.14  1.5314 1.8100  89.2 21.1 1.39  17
2026 02 15 22  03 08 56.744   +39 34 50.40  1.5309 1.8087  89.1 21.1 1.42  16
2026 02 15 23  03 08 47.577   +39 35 28.67  1.5304 1.8073  89.0 21.1 1.46  16
2026 02 16 00  03 08 38.407   +39 36 06.93  1.5299 1.8060  89.0 21.1 1.50  16
2026 02 16 01  03 08 29.233   +39 36 45.19  1.5294 1.8046  88.9 21.1 1.53  16
2026 02 16 02  03 08 20.055   +39 37 23.45  1.5289 1.8033  88.8 21.1 1.57  16
2026 02 16 03  03 08 10.873   +39 38 01.70  1.5284 1.8019  88.8 21.1 1.61  16
2026 02 16 04  03 08 01.687   +39 38 39.95  1.5279 1.8006  88.7 21.1 1.65  15
2026 02 16 05  03 07 52.498   +39 39 18.20  1.5274 1.7992  88.6 21.1 1.69  15
2026 02 16 06  03 07 43.305   +39 39 56.45  1.5269 1.7979  88.6 21.1 1.73  15
2026 02 16 07  03 07 34.107   +39 40 34.69  1.5264 1.7965  88.5 21.1 1.77  15
2026 02 16 08  03 07 24.906   +39 41 12.94  1.5259 1.7952  88.4 21.1 1.81  15
2026 02 16 09  03 07 15.701   +39 41 51.17  1.5254 1.7938  88.4 21.1 1.85  15
2026 02 16 10  03 07 06.493   +39 42 29.41  1.5249 1.7925  88.3 21.1 1.89  14
2026 02 16 11  03 06 57.280   +39 43 07.64  1.5244 1.7911  88.3 21.1 1.93  14
2026 02 16 12  03 06 48.063   +39 43 45.87  1.5240 1.7898  88.2 21.1 1.97  14
2026 02 16 13  03 06 38.843   +39 44 24.10  1.5235 1.7884  88.1 21.1 2.01  14
2026 02 16 14  03 06 29.619   +39 45 02.33  1.5230 1.7871  88.1 21.1 2.06  14
2026 02 16 15  03 06 20.391   +39 45 40.55  1.5225 1.7857  88.0 21.1 2.10  14
2026 02 16 16  03 06 11.159   +39 46 18.77  1.5220 1.7844  87.9 21.1 2.14  13
2026 02 16 17  03 06 01.923   +39 46 56.98  1.5215 1.7831  87.9 21.1 2.19  13
2026 02 16 18  03 05 52.683   +39 47 35.20  1.5210 1.7817  87.8 21.1 2.23  13
2026 02 16 19  03 05 43.439   +39 48 13.41  1.5205 1.7804  87.7 21.1 2.27  13
2026 02 16 20  03 05 34.192   +39 48 51.62  1.5200 1.7790  87.7 21.1 2.32  13
2026 02 16 21  03 05 24.940   +39 49 29.82  1.5195 1.7777  87.6 21.1 2.37  13
2026 02 16 22  03 05 15.685   +39 50 08.02  1.5190 1.7763  87.5 21.1 2.41  12
2026 02 16 23  03 05 06.425   +39 50 46.22  1.5186 1.7750  87.5 21.1 2.46  12
2026 02 17 00  03 04 57.162   +39 51 24.42  1.5181 1.7736  87.4 21.1 2.50  12
2026 02 17 01  03 04 47.895   +39 52 02.62  1.5176 1.7723  87.4 21.1 2.55  12
2026 02 17 02  03 04 38.624   +39 52 40.81  1.5171 1.7709  87.3 21.1 2.60  12